Location: Unspecified
(0.0000°N, 0.0000°E)
Time: 09:22:09
(UTC+00:00)

ACS3 Solar Sail - Pass Details

Date: 05 November 2025
Orbit: 910 x 992 km, 97.3° (Epoch: 12 November)

Event Time Altitude Azimuth Distance (km) Brightness Sun altitude
Exits shadow 03:14:22 15° 188° (S) 2,397 3.9 -35.7°
Drops below altitude 10° 03:15:18 10° 188° (S) 2,752 4.2 -35.5°
Sets 03:17:48 0° 189° (S) 3,707 5.0 -34.9°
